Hourly Data Report for October 06, 2017

All times are specified in Local Standard Time (LST). Add 1 hour to adjust for Daylight Saving Time where and when it is observed.

SUMMERSIDE
PRINCE EDWARD ISLAND

46°26'28.000" N
63°50'17.000" W
12.20 m
8300596
71702
WSD

Download Data

Hourly Data (October 2017)
Hourly Data Report for October 6, 2017
Temp Definition
°C
Dew Point Temp Definition
°C
Rel Hum Definition
%
Wind Dir Definition
10's deg

Wind Spd Definition
km/h
Visibility Definition
km
Stn Press Definition
kPa
Hmdx Definition


Wind Chill Definition


Weather Definition


TIME
00:00 13.6 10.9 84 21 17   100.99     LegendNANA
01:00 14.0 11.1 83 22 21   101.02     LegendNANA
02:00 15.1 8.6 65 25 23   101.01     LegendNANA
03:00 14.3 9.3 72 24 16   100.99     LegendNANA
04:00 13.3 8.5 73 27 12   101.04     LegendNANA
05:00 11.3 7.9 79 28 8   101.08     LegendNANA
06:00 10.8 8.2 84 26 12   101.17     LegendNANA
07:00 11.0 8.4 84 29 12   101.26     LegendNANA
08:00 13.7 9.4 75 28 12   101.32     LegendNANA
09:00 13.7 7.2 65 30 23   101.37     LegendNANA
10:00 14.1 6.5 60 30 17   101.41     LegendNANA
11:00 15.0 6.1 55 28 16   101.39     LegendNANA
12:00 15.3 6.0 54 27 17   101.36     LegendNANA
13:00 16.0 6.7 54 29 16   101.32     LegendNANA
14:00 16.4 7.2 54 25 14   101.30     LegendNANA
15:00 15.5 7.9 60 26 6   101.30     LegendNANA
16:00 14.6 9.1 70 21 9   101.31     LegendNANA
17:00 14.2 9.0 71 20 11   101.34     LegendNANA
18:00 13.3 9.7 79 19 9   101.35     LegendNANA
19:00 11.9 9.8 87 23 4   101.42     LegendNANA
20:00 8.8 7.2 90 25 7   101.44     LegendNANA
21:00 9.8 8.8 94 27 6   101.51     LegendNANA
22:00 7.7 6.6 93 24 4   101.63     LegendNANA
23:00 7.2 5.4 88 23 4   101.70     LegendNANA

Notes on Data Quality.

Legend

  • E = Estimated
  • M = Missing
  • NA = Not Available
  • ‡ = Partner data that is not subject to review by the National Climate Archives
Date modified: